Weather History for KGPM - May, 2013

Change the Weather History Date:

Thursday, May 2, 2013

  Actual Average (KDFW) Record (KDFW)
Temperature  
Mean Temperature 56 °F 70 °F  
Max Temperature 69 °F 80 °F 95 °F (1943)
Min Temperature 44 °F 60 °F 44 °F (1978)
Degree Days  
Heating Degree Days 8 1  
Month to date heating degree days 2  
Since 1 July heating degree days 2278  
Cooling Degree Days 0 6  
Month to date cooling degree days 11  
Year to date cooling degree days 149  
Growing Degree Days 6 (Base 50)    
Moisture  
Dew Point 46 °F    
Average Humidity 73    
Maximum Humidity 87    
Minimum Humidity 62    
Precipitation  
Precipitation 0.00 in 0.15 in 2.45 in (2009)
Month to date precipitation 0.30  
Year to date precipitation 11.65  
Sea Level Pressure  
Sea Level Pressure 30.20 in    
Wind  
Wind Speed 11 mph (North)    
Max Wind Speed 18 mph    
Max Gust Speed 32 mph    
Visibility 9 miles    
Events Rain    
T = Trace of Precipitation, MM = Missing Value Source: NWS Daily Summary

Daily Weather History Graph

Daily Weather History Graph

Search for Another Location

Airport or City:

Trip Planner

Search our weather history database for the weather conditions in past years. The results will help you decide how hot, cold, wet, or windy it might be!

Date:

Astronomy

May. 02, 2013 Rise Set
Actual Time 6:39 AM CDT 8:10 PM CDT
Civil Twilight 6:13 AM CDT 8:37 PM CDT
Nautical Twilight 5:42 AM CDT 9:08 PM CDT
Astronomical Twilight 5:09 AM CDT 9:41 PM CDT
Moon 2:03 AM CDT (5/2) 1:24 PM CDT (5/2)
Length of Visible Light 14h 23m
Length of Day
13h 30m
Waning Gibbous, 47% of the Moon is Illuminated
May 2
Waning Gibbous
May 9
New
May 17
First Quarter
May 24
Full
May 31
Last Quarter

Hourly Weather History & Observations

Time (CDT) Temp. Windchill Dew Point Humidity Pressure Visibility Wind Dir Wind Speed Gust Speed Precip Events Conditions
12:15 AM 69.8 °F - 60.8 °F 73% 29.97 in 10.0 mi East 10.4 mph - N/A   Clear
12:35 AM 69.8 °F - 60.8 °F 73% 30.01 in 10.0 mi NE 8.1 mph - N/A   Clear
12:55 AM 68.0 °F - 60.8 °F 78% 30.03 in 10.0 mi NE 5.8 mph - N/A   Clear
1:15 AM 68.0 °F - 60.8 °F 78% 30.04 in 10.0 mi NE 8.1 mph - N/A   Clear
1:35 AM 68.0 °F - 60.8 °F 78% 30.04 in 10.0 mi NE 9.2 mph - N/A   Clear
1:55 AM 66.2 °F - 60.8 °F 83% 30.03 in 10.0 mi NE 10.4 mph - N/A   Scattered Clouds
2:15 AM 66.2 °F - 59.0 °F 78% 30.04 in 10.0 mi NE 9.2 mph - N/A   Clear
2:35 AM 66.2 °F - 59.0 °F 78% 30.04 in 10.0 mi NNE 6.9 mph - N/A   Clear
2:55 AM 66.2 °F - 59.0 °F 78% 30.04 in 10.0 mi NNE 8.1 mph - N/A   Scattered Clouds
3:15 AM 66.2 °F - 59.0 °F 78% 30.04 in 10.0 mi NNE 10.4 mph - N/A   Overcast
3:55 AM 66.2 °F - 59.0 °F 78% 30.05 in 10.0 mi North 11.5 mph 16.1 mph N/A   Overcast
4:15 AM 66.2 °F - 59.0 °F 78% 30.06 in 10.0 mi North 12.7 mph - N/A   Overcast
4:35 AM 62.6 °F - 53.6 °F 72% 30.07 in 10.0 mi NNW 11.5 mph 18.4 mph N/A   Mostly Cloudy
4:55 AM 59.0 °F - 51.8 °F 77% 30.09 in 7.0 mi North 11.5 mph 20.7 mph N/A   Mostly Cloudy
5:15 AM 57.2 °F - 50.0 °F 77% 30.11 in 7.0 mi NNW 13.8 mph 20.7 mph N/A   Overcast
5:35 AM 55.4 °F - 48.2 °F 77% 30.12 in 10.0 mi NW 12.7 mph 24.2 mph N/A   Overcast
6:15 AM 53.6 °F - 44.6 °F 72% 30.15 in 10.0 mi NNW 9.2 mph 19.6 mph N/A   Mostly Cloudy
6:35 AM 51.8 °F - 44.6 °F 76% 30.17 in 10.0 mi NW 12.7 mph 19.6 mph N/A   Overcast
6:50 AM 51.8 °F - 44.6 °F 76% 30.18 in 5.0 mi NNW 10.4 mph 20.7 mph N/A   Overcast
6:55 AM 51.8 °F - 42.8 °F 71% 30.18 in 7.0 mi NNW 15.0 mph 21.9 mph N/A   Mostly Cloudy
7:50 AM 48.2 °F - 44.6 °F 87% 30.21 in 7.0 mi NNW 9.2 mph 17.3 mph N/A   Overcast
8:50 AM 48.2 °F - 42.8 °F 82% 30.23 in 7.0 mi NNW 11.5 mph 20.7 mph N/A   Overcast
9:50 AM 50.0 °F - 41.0 °F 71% 30.24 in 10.0 mi NNW 11.5 mph 20.7 mph N/A   Overcast
10:55 AM 50.0 °F - 39.2 °F 66% 30.27 in 10.0 mi NNW 12.7 mph 21.9 mph N/A   Overcast
11:55 AM 50.0 °F - 39.2 °F 66% 30.29 in 10.0 mi NNW 15.0 mph 23.0 mph N/A   Overcast
12:55 PM 51.8 °F - 39.2 °F 62% 30.29 in 10.0 mi NNW 13.8 mph 20.7 mph N/A   Overcast
1:55 PM 51.8 °F - 39.2 °F 62% 30.30 in 10.0 mi NNW 12.7 mph 20.7 mph N/A   Overcast
2:55 PM 48.2 °F - 39.2 °F 71% 30.32 in 10.0 mi NW 9.2 mph 20.7 mph N/A   Overcast
3:55 PM 46.4 °F 40.1 °F 39.2 °F 76% 30.32 in 5.0 mi NW 15.0 mph 32.2 mph N/A Rain Light Rain
4:55 PM 46.4 °F 40.4 °F 37.4 °F 71% 30.32 in 5.0 mi NNW 13.8 mph 32.2 mph N/A Rain Light Rain
5:55 PM 44.6 °F 38.1 °F 39.2 °F 81% 30.32 in 5.0 mi NNW 13.8 mph 32.2 mph N/A Rain Light Rain
7:55 PM 44.6 °F 37.4 °F 37.4 °F 76% 30.36 in 5.0 mi NNW 16.1 mph 32.2 mph N/A   Overcast
8:55 PM 44.6 °F 37.4 °F 35.6 °F 71% 30.37 in 5.0 mi NNW 16.1 mph 32.2 mph N/A   Overcast
9:15 PM 44.6 °F 36.9 °F 35.6 °F 71% 30.37 in 10.0 mi North 18.4 mph 25.3 mph N/A   Mostly Cloudy
9:35 PM 44.6 °F 36.9 °F 33.8 °F 66% 30.37 in 10.0 mi North 18.4 mph 28.8 mph N/A   Mostly Cloudy
9:55 PM 44.6 °F 38.8 °F 33.8 °F 66% 30.37 in 10.0 mi North 11.5 mph 23.0 mph N/A   Mostly Cloudy
10:15 PM 44.6 °F 38.4 °F 33.8 °F 66% 30.37 in 10.0 mi North 12.7 mph 23.0 mph N/A   Scattered Clouds
10:35 PM 44.6 °F 37.8 °F 33.8 °F 66% 30.37 in 10.0 mi North 15.0 mph 24.2 mph N/A   Mostly Cloudy
10:55 PM 44.6 °F 38.1 °F 33.8 °F 66% 30.37 in 10.0 mi North 13.8 mph 21.9 mph N/A   Mostly Cloudy
11:15 PM 44.6 °F 38.4 °F 33.8 °F 66% 30.37 in 10.0 mi North 12.7 mph 23.0 mph N/A   Scattered Clouds
11:35 PM 44.6 °F 37.4 °F 33.8 °F 66% 30.36 in 10.0 mi North 16.1 mph 25.3 mph N/A   Scattered Clouds
11:55 PM 44.6 °F 37.8 °F 33.8 °F 66% 30.35 in 10.0 mi North 15.0 mph 26.5 mph N/A   Scattered Clouds